Location: Gleizolles
(44.4833°N, 6.7667°E)
Time: 11:17:11
(UTC+00:00)

Transit 4A - Pass Details

Date: 25 June 2024
Orbit: 869 x 973 km, 66.8° (Epoch: 22 July)

Event Time Altitude Azimuth Distance (km) Brightness Sun altitude
Rises 20:48:49 0° 201° (SSW) 3,461 10.6 -12.2°
Reaches altitude 10° 20:51:19 10° 199° (SSW) 2,518 9.9 -12.5°
Maximum altitude 20:57:04 67° 118° (ESE) 939 7.7 -13.1°
Drops below altitude 10° 21:02:50 10° 37° (NE) 2,526 10.4 -13.7°
Sets 21:05:20 0° 34° (NE) 3,473 11.2 -13.9°
